Location: *
(38.9800°N, 16.0500°E)
Time: 03:40:58
(UTC+00:00)

Cosmos 494 Rocket - Pass Details

Date: 07 April 2020
Orbit: 742 x 771 km, 74.1° (Epoch: 27 May)

Event Time Altitude Azimuth Distance (km) Brightness Sun altitude
Rises 02:39:18 0° 341° (NNW) 3,248 7.4 -21.3°
Reaches altitude 10° 02:41:41 10° 342° (NNW) 2,319 6.6 -20.8°
Maximum altitude 02:46:58 89° 69° (ENE) 776 3.9 -19.9°
Drops below altitude 10° 02:52:13 10° 163° (SSE) 2,305 6.4 -19.0°
Sets 02:54:35 0° 163° (SSE) 3,226 7.1 -18.6°
